Location: Bidart
(43.4376°N, 1.5913°W)
Time: 06:39:56
(UTC+00:00)

Okean-O - Pass Details

Date: 19 May 2025
Orbit: 628 x 631 km, 98.0° (Epoch: 18 June)

Event Time Altitude Azimuth Distance (km) Brightness Sun altitude
Exits shadow 20:03:39 - 133° (SE) 2,222 4.7 -6.2°
Reaches altitude 10° 20:04:14 10° 130° (SE) 2,009 4.5 -6.3°
Maximum altitude 20:08:03 31° 68° (ENE) 1,122 3.6 -6.9°
Drops below altitude 10° 20:11:55 10° 7° (N) 2,021 5.6 -7.4°
Sets 20:14:18 0° 357° (N) 2,934 6.7 -7.8°
